This is the latest recevied weather packets stored in our database for station/object NO9B. If no packets are shown the sender has not sent any weather packets the latest 10 day(s).
| Time | Temp. | Humidity | Pressure | Rain* | Wind** | Luminosity | Snow |
|---|---|---|---|---|---|---|---|
| 1787851827 | 28.33° C | 51% | 1017.8 hPa | 0 mm | - | 128 W/m² | - |
| 1787851526 | 28.33° C | 53% | 1017.8 hPa | 0 mm | - | 657 W/m² | - |
| 1787851226 | 27.78° C | 56% | 1017.7 hPa | 0 mm | - | 656 W/m² | - |
| 1787850922 | 27.22° C | 57% | 1017.8 hPa | 0 mm | - | 668 W/m² | - |
| 1787850618 | 27.78° C | 54% | 1017.6 hPa | 0 mm | - | 64 W/m² | - |
| 1787850313 | 27.78° C | 54% | 1017.8 hPa | 0 mm | - | 115 W/m² | - |
| 1787850009 | 27.78° C | 54% | 1017.8 hPa | 0 mm | - | 601 W/m² | - |
| 1787849708 | 27.22° C | 58% | 1017.8 hPa | 0 mm | - | 589 W/m² | - |
| 1787849403 | 27.22° C | 56% | 1017.9 hPa | 0 mm | - | 572 W/m² | - |
| 1787849101 | 27.22° C | 55% | 1017.8 hPa | 0 mm | - | 113 W/m² | - |
| 1787848796 | 27.22° C | 61% | 1017.7 hPa | 0 mm | - | 563 W/m² | - |
| 1787848495 | 26.67° C | 60% | 1018 hPa | 0 mm | - | 551 W/m² | - |
| 1787848190 | 26.11° C | 64% | 1018 hPa | 0 mm | - | 182 W/m² | - |
| 1787847890 | 26.11° C | 59% | 1017.9 hPa | 0 mm | - | 64 W/m² | - |
| 1787847585 | 25.56° C | 62% | 1018.2 hPa | 0 mm | - | 52 W/m² | - |
| 1787847281 | 25.56° C | 65% | 1018 hPa | 0 mm | - | 61 W/m² | - |
| 1787846978 | 25° C | 67% | 1017.9 hPa | 0 mm | - | 99 W/m² | - |
| 1787846677 | 25° C | 67% | 1017.9 hPa | 0 mm | - | 58 W/m² | - |
| 1787846372 | 25° C | 69% | 1018.2 hPa | 0 mm | - | 69 W/m² | - |
| 1787846068 | 25° C | 65% | 1017.8 hPa | 0 mm | - | 77 W/m² | - |
| 1787845764 | 25.56° C | 66% | 1017.8 hPa | 0 mm | - | 51 W/m² | - |
| 1787845459 | 25.56° C | 69% | 1017.6 hPa | 0 mm | - | 81 W/m² | - |
| 1787845155 | 25° C | 68% | 1017.8 hPa | 0 mm | - | 44 W/m² | - |
| 1787844850 | 25° C | 67% | 1017.8 hPa | 0 mm | - | 40 W/m² | - |
| 1787844548 | 25° C | 68% | 1017.8 hPa | 0 mm | - | 34 W/m² | - |
* Rain latest hour (hover to see other rain measurements)
** Current wind speed in m/s (hover to see current wind gust speed)